Weather History for Chandler, OK

Change the Weather History Date:

Tuesday, March 11, 2014

  Actual Average (KCUH) Record (KCUH)
Temperature  
Mean Temperature 68 °F -  
Max Temperature 84 °F 61 °F 86 °F (1955)
Min Temperature 50 °F 38 °F -2 °F (1948)
Cooling Degree Days 2    
Growing Degree Days 18 (Base 50)    
Moisture  
Dew Point 49 °F    
Average Humidity 61    
Maximum Humidity 100    
Minimum Humidity 26    
Precipitation  
Precipitation 0.00 in - - ()
Sea Level Pressure  
Sea Level Pressure 29.64 in    
Wind  
Wind Speed 14 mph (SW)    
Max Wind Speed 29 mph    
Max Gust Speed 40 mph    
Visibility 10 miles    
Events      
Averages and records for this station are not official NWS values.
T = Trace of Precipitation, MM = Missing Value Source: NWS Daily Summary

Daily Weather History Graph

Daily Weather History Graph

Search for Another Location

Airport:

Trip Planner

Search our weather history database for the weather conditions in past years. The results will help you decide how hot, cold, wet, or windy it might be!

Date:

Astronomy

Mar. 11, 2014 Rise Set
Actual Time 7:43 AM CDT 7:31 PM CDT
Civil Twilight 7:18 AM CDT 7:56 PM CDT
Nautical Twilight 6:48 AM CDT 8:26 PM CDT
Astronomical Twilight 6:18 AM CDT 8:56 PM CDT
Moon 3:15 PM CDT (3/11) 4:30 AM CDT (3/11)
Length of Visible Light 12h 38m
Length of Day
11h 47m
Waxing Gibbous, 78% of the Moon is Illuminated
Mar 11
Waxing Gibbous
Mar 16
Full
Mar 23
Last Quarter
Mar 30
New
Apr 7
First Quarter

Hourly Weather History & Observations

Time (CDT) Temp. Heat Index Dew Point Humidity Pressure Visibility Wind Dir Wind Speed Gust Speed Precip Events Conditions
12:15 AM 59.0 °F - 42.8 °F 55% 29.77 in 10.0 mi South 8.1 mph - N/A   Unknown
12:35 AM 59.0 °F - 44.6 °F 59% 29.75 in 10.0 mi South 9.2 mph - N/A   Unknown
12:55 AM 59.0 °F - 46.4 °F 63% 29.74 in 10.0 mi SSW 10.4 mph - N/A   Unknown
1:15 AM 60.8 °F - 46.4 °F 59% 29.73 in 10.0 mi SSW 10.4 mph - N/A   Unknown
1:35 AM 60.8 °F - 46.4 °F 59% 29.73 in 10.0 mi SSW 9.2 mph - N/A   Unknown
1:55 AM 59.0 °F - 48.2 °F 67% 29.72 in 10.0 mi SSW 8.1 mph - N/A   Unknown
2:15 AM 59.0 °F - 48.2 °F 67% 29.72 in 10.0 mi SSW 8.1 mph - N/A   Unknown
2:35 AM 59.0 °F - 50.0 °F 72% 29.71 in 10.0 mi SSW 8.1 mph - N/A   Unknown
2:55 AM 57.2 °F - 50.0 °F 77% 29.70 in 10.0 mi SSW 9.2 mph - N/A   Unknown
3:15 AM 57.2 °F - 50.0 °F 77% 29.70 in 10.0 mi SSW 9.2 mph - N/A   Unknown
3:35 AM 59.0 °F - 51.8 °F 77% 29.69 in 10.0 mi SSW 11.5 mph - N/A   Unknown
3:55 AM 59.0 °F - 51.8 °F 77% 29.68 in 10.0 mi SSW 10.4 mph - N/A   Unknown
4:15 AM 57.2 °F - 51.8 °F 82% 29.66 in 10.0 mi SSW 9.2 mph - N/A   Unknown
4:35 AM 57.2 °F - 51.8 °F 82% 29.65 in 10.0 mi SSW 10.4 mph - N/A   Unknown
4:55 AM 57.2 °F - 51.8 °F 82% 29.65 in 10.0 mi SSW 10.4 mph - N/A   Unknown
5:15 AM 57.2 °F - 53.6 °F 88% 29.64 in 10.0 mi SSW 10.4 mph - N/A   Unknown
5:35 AM 57.2 °F - 53.6 °F 88% 29.64 in 10.0 mi SSW 10.4 mph - N/A   Unknown
5:55 AM 57.2 °F - 53.6 °F 88% 29.63 in 10.0 mi SSW 9.2 mph - N/A   Unknown
6:15 AM 57.2 °F - 53.6 °F 88% 29.63 in 10.0 mi SSW 9.2 mph - N/A   Unknown
6:35 AM 55.4 °F - 53.6 °F 94% 29.62 in 10.0 mi SSW 11.5 mph - N/A   Unknown
6:55 AM 55.4 °F - 53.6 °F 94% 29.62 in 10.0 mi SSW 9.2 mph - N/A   Unknown
7:15 AM 55.4 °F - 53.6 °F 94% 29.62 in 10.0 mi SSW 9.2 mph - N/A   Unknown
7:35 AM 55.4 °F - 53.6 °F 94% 29.61 in 10.0 mi SSW 9.2 mph - N/A   Unknown
7:55 AM 55.4 °F - 53.6 °F 94% 29.60 in 10.0 mi SSW 10.4 mph - N/A   Unknown
8:15 AM 55.4 °F - 55.4 °F 100% 29.60 in 10.0 mi South 9.2 mph - N/A   Unknown
8:35 AM 59.0 °F - 55.4 °F 88% 29.59 in 10.0 mi SSW 12.7 mph 18.4 mph N/A   Unknown
8:55 AM 59.0 °F - 55.4 °F 88% 29.58 in 10.0 mi South 16.1 mph 21.9 mph N/A   Unknown
9:15 AM 60.8 °F - 55.4 °F 82% 29.58 in 10.0 mi SSW 16.1 mph 23.0 mph N/A   Unknown
9:35 AM 62.6 °F - 55.4 °F 77% 29.57 in 10.0 mi SSW 20.7 mph 26.5 mph N/A   Unknown
9:55 AM 64.4 °F - 57.2 °F 77% 29.57 in 10.0 mi SW 16.1 mph 21.9 mph N/A   Unknown
10:35 AM 68.0 °F - 55.4 °F 64% 29.55 in 10.0 mi SW 15.0 mph - N/A   Unknown
10:55 AM 71.6 °F - 55.4 °F 57% 29.53 in 10.0 mi SSW 16.1 mph 24.2 mph N/A   Unknown
11:15 AM 73.4 °F - 55.4 °F 53% 29.54 in 10.0 mi SSW 15.0 mph 24.2 mph N/A   Unknown
11:35 AM 73.4 °F - 55.4 °F 53% - - North - - N/A   Unknown
11:55 AM 73.4 °F - 55.4 °F 53% - - North - - N/A   Unknown
12:15 PM 77.0 °F - 55.4 °F 47% 29.51 in 10.0 mi South 16.1 mph 29.9 mph N/A   Unknown
12:35 PM 77.0 °F - 53.6 °F 44% 29.51 in 10.0 mi SSW 21.9 mph 28.8 mph N/A   Unknown
12:55 PM 78.8 °F - 53.6 °F 42% 29.50 in 10.0 mi SSW 17.3 mph 27.6 mph N/A   Clear
1:15 PM 78.8 °F - 53.6 °F 42% 29.49 in 10.0 mi SSW 21.9 mph 28.8 mph N/A   Unknown
1:35 PM 80.6 °F 80.3 °F 53.6 °F 39% 29.48 in 10.0 mi SSW 18.4 mph 26.5 mph N/A   Unknown
1:55 PM 80.6 °F - 51.8 °F 37% - - North - - N/A   Unknown
2:15 PM 80.6 °F - 51.8 °F 37% - - North - - N/A   Unknown
2:35 PM 82.4 °F 81.4 °F 53.6 °F 37% 29.45 in 10.0 mi SW 20.7 mph 27.6 mph N/A   Unknown
2:55 PM 82.4 °F 81.4 °F 53.6 °F 37% 29.45 in 10.0 mi SSW 21.9 mph 29.9 mph N/A   Unknown
3:15 PM - - - N/A% - - North - - N/A   Unknown
3:35 PM 84.2 °F - 51.8 °F 33% 29.45 in 10.0 mi WSW 20.7 mph 29.9 mph N/A   Unknown
3:55 PM 84.2 °F - 50.0 °F 30% 29.45 in 10.0 mi WSW 18.4 mph 31.1 mph N/A   Unknown
4:15 PM 84.2 °F - 48.2 °F 29% 29.46 in 10.0 mi WSW 17.3 mph 27.6 mph N/A   Unknown
4:35 PM 82.4 °F - 48.2 °F 30% 29.47 in 10.0 mi West 21.9 mph 28.8 mph N/A   Unknown
4:55 PM 82.4 °F - 46.4 °F 28% 29.48 in 10.0 mi West 19.6 mph 26.5 mph N/A   Unknown
5:15 PM 80.6 °F - 50.0 °F 34% 29.49 in 10.0 mi West 15.0 mph 26.5 mph N/A   Unknown
5:35 PM 77.0 °F - 39.2 °F 26% 29.52 in 10.0 mi NW 25.3 mph 35.7 mph N/A   Unknown
5:55 PM 71.6 °F - 42.8 °F 35% 29.55 in 10.0 mi NNW 26.5 mph 36.8 mph N/A   Unknown
6:15 PM 68.0 °F - 42.8 °F 40% 29.57 in 10.0 mi NNW 25.3 mph 35.7 mph N/A   Unknown
6:35 PM 68.0 °F - 42.8 °F 40% 29.60 in 10.0 mi NW 25.3 mph 35.7 mph N/A   Clear
6:55 PM 64.4 °F - 42.8 °F 45% 29.62 in 10.0 mi NW 24.2 mph 38.0 mph N/A   Clear
7:15 PM 62.6 °F - 41.0 °F 45% 29.65 in 10.0 mi NNW 26.5 mph 35.7 mph N/A   Clear
7:35 PM 60.8 °F - 41.0 °F 48% 29.68 in 10.0 mi NNW 24.2 mph 33.4 mph N/A   Clear
7:55 PM 59.0 °F - 41.0 °F 51% 29.70 in 10.0 mi NNW 23.0 mph 33.4 mph N/A   Clear
8:15 PM 59.0 °F - 41.0 °F 51% 29.72 in 10.0 mi NNW 18.4 mph 31.1 mph N/A   Clear
8:35 PM 57.2 °F - 39.2 °F 51% 29.73 in 10.0 mi NNW 20.7 mph 33.4 mph N/A   Clear
8:55 PM 57.2 °F - 39.2 °F 51% 29.75 in 10.0 mi NNW 23.0 mph 32.2 mph N/A   Clear
9:15 PM 55.4 °F - 41.0 °F 58% 29.78 in 10.0 mi NNW 16.1 mph 31.1 mph N/A   Clear
9:35 PM 55.4 °F - 41.0 °F 58% 29.80 in 10.0 mi NNW 26.5 mph 34.5 mph N/A   Clear
9:55 PM 53.6 °F - 41.0 °F 62% 29.82 in 10.0 mi North 23.0 mph 35.7 mph N/A   Clear
10:15 PM 51.8 °F - 41.0 °F 67% 29.85 in 10.0 mi NNW 20.7 mph 35.7 mph N/A   Clear
10:35 PM 51.8 °F - 41.0 °F 67% 29.88 in 10.0 mi North 23.0 mph 33.4 mph N/A   Mostly Cloudy
10:55 PM 51.8 °F - 41.0 °F 67% 29.90 in 10.0 mi North 25.3 mph 33.4 mph N/A   Overcast
11:15 PM 51.8 °F - 41.0 °F 67% 29.91 in 10.0 mi North 28.8 mph 38.0 mph N/A   Overcast
11:35 PM 51.8 °F - 41.0 °F 67% 29.92 in 10.0 mi North 25.3 mph 40.3 mph N/A   Overcast
11:55 PM 50.0 °F - 41.0 °F 71% 29.94 in 10.0 mi North 27.6 mph 40.3 mph N/A   Overcast